Date,TemperatureHighF,TemperatureAvgF,TemperatureLowF,DewpointHighF,DewpointAvgF,DewpointLowF,HumidityHigh,HumidityAvg,HumidityLow,PressureMaxIn,PressureMinIn,WindSpeedMaxMPH,WindSpeedAvgMPH,GustSpeedMaxMPH,PrecipitationSumIn
2013-8-1,88,77,67,73,66,62,85,70,51,29.94,29.78,7,2,10,0.03
2013-8-2,85,75,72,72,57,-100,79,66,63,29.80,29.71,4,-33,7,0.51
2013-8-3,84,74,64,70,64,58,79,70,56,29.99,29.80,8,3,10,0.00
2013-8-4,74,70,67,66,61,56,81,71,63,30.02,29.87,7,2,10,0.02
2013-8-5,83,75,70,76,69,65,89,83,74,29.89,29.65,6,2,9,0.00
2013-8-6,88,80,71,77,72,66,88,76,63,29.72,29.61,8,2,13,0.00
2013-8-7,85,78,71,73,68,59,86,71,55,29.82,29.61,8,3,11,0.00
2013-8-8,74,70,66,66,62,58,80,76,67,29.87,29.78,3,1,6,0.00
2013-8-9,81,73,67,71,65,62,88,78,64,29.96,29.86,4,1,6,0.00
2013-8-10,84,74,63,67,61,57,84,66,45,30.06,29.92,5,1,10,0.00
2013-8-11,86,75,64,68,63,56,77,66,53,29.98,29.83,7,2,9,0.00
2013-8-12,83,74,69,74,67,63,87,80,69,29.90,29.78,7,2,9,0.69
2013-8-13,79,60,64,68,32,-100,88,63,52,30.01,29.89,11,-134,11,0.00
2013-8-14,67,66,66,57,57,57,72,71,71,30.00,29.99,0,0,1,0.00
2013-8-20,87,28,70,70,-44,-100,82,23,54,29.88,29.81,17,-565,17,0.00
2013-8-21,89,51,69,71,6,-100,79,47,56,29.90,29.81,10,-271,10,0.00
2013-8-22,88,74,70,75,59,-100,83,69,58,29.92,29.84,10,-23,10,0.00
2013-8-23,91,76,70,76,57,-100,83,65,47,29.93,29.83,6,-45,13,0.00
2013-8-24,90,51,74,75,-5,-100,75,34,54,29.99,29.86,10,-377,14,0.00
2013-8-25,92,75,72,76,53,-100,82,63,55,30.02,29.92,9,-55,15,0.00
2013-8-26,93,82,73,74,69,66,83,67,51,29.97,29.85,13,5,14,0.00
2013-8-27,91,72,72,71,48,-100,80,59,48,29.86,29.77,16,-76,20,0.00
2013-8-28,90,70,69,73,45,-100,79,59,55,29.88,29.80,11,-106,17,0.00
2013-8-29,95,70,74,76,45,-100,79,59,48,29.86,29.75,9,-135,9,0.00
2013-8-30,96,84,74,74,69,66,74,62,44,29.77,29.63,10,5,15,0.00
2013-8-31,88,79,74,78,71,65,86,77,63,29.74,29.62,7,1,8,0.00